Regional Weather Roundup
Issued by NWS

Home | Current Version | Previous Version | Text Only | Print | Product List | Glossary Off
Versions: 1 2 3 4 5 6 7 8 9 10 11 12 13 14 15 16 17 18 19 20 21 22 23 24 25 26 27 28 29 30 31 32 33 34 35 36 37 38 39 40 41 42 43 44 45 46 47 48 49 50

000
ASUS43 KMPX 292010
RWRMN
WEATHER ROUNDUP FOR MINNESOTA
NATIONAL WEATHER SERVICE TWIN CITIES/CHANHASSEN MN
300 PM CDT FRI AUG 29 2014


NOTE: "FAIR" INDICATES FEW OR NO CLOUDS BELOW 12,000 FEET WITH NO
SIGNIFICANT WEATHER AND/OR OBSTRUCTIONS TO VISIBILITY. N/A MEANS
CURRENT SKY AND/OR WEATHER CONDITIONS ARE NOT AVAILABLE.

MNZ060>063-068>070-292100-
   Twin Cities Metro

CITY           SKY/WX    TMP DP  RH WIND       PRES   REMARKS
TWIN CITIES    CLOUDY    79  68  69 S7        29.74F
ST PAUL        CLOUDY    77  70  79 NE6       29.74F
CRYSTAL        CLOUDY    72  67  84 NE5       29.75F
BLAINE         CLOUDY    70  70 100 NE5       29.77F
LAKEVILLE      CLOUDY    79  70  73 SW5       29.75F
EDEN PRAIRIE   PTSUNNY   80  70  71 S5        29.73F
SOUTH ST PAUL  CLOUDY    77  69  76 SE5       29.74F
LAKE ELMO      LGT RAIN  72  68  88 NE3       29.77F
$$
MNZ001>005-007-008-013>017-022>024-027-028-292100-
   Northwest Minnesota

CITY           SKY/WX    TMP DP  RH WIND       PRES   REMARKS
BEMIDJI        CLOUDY    69  64  85 SW6       29.77S
HALLOCK        DRIZZLE   64  63  94 N15G21    29.78R
ROSEAU         CLOUDY    66  63  88 NW7       29.77S HAZE
WARROAD        DRIZZLE   68  64  88 W9        29.77S
THIEF RVR FALL CLOUDY    70  64  83 W10       29.77S
CROOKSTON      PTSUNNY   70  64  83 CALM      29.77F
FOSSTON        CLOUDY    70  63  78 CALM      29.77F
DETROIT LAKES  CLOUDY    70  64  83 SW6       29.79S
MOORHEAD       PTSUNNY   72  70  94 CALM      29.77S
PARK RAPIDS    CLOUDY    70  64  81 CALM      29.77F
MAHNOMEN       CLOUDY    70  65  85 W8        29.77S
$$
MNZ006-009>011-018-025>026-292100-
   North Central Minnesota

CITY           SKY/WX    TMP DP  RH WIND       PRES   REMARKS
BAUDETTE       CLOUDY    67  63  87 S3        29.76S
FLAG ISLAND    LGT RAIN  66  64  94 CALM      29.75F
INTL FALLS     CLOUDY    68  61  78 SE6       29.76F
WASKISH        CLOUDY    66  64  94 CALM      29.77S
BIG FORK       CLOUDY    66  61  82 CALM      29.78S
LONGVILLE      CLOUDY    66  64  94 CALM      29.78R
GRAND RAPIDS   CLOUDY    64  61  88 S3        29.78R
CRANE LAKE     CLOUDY    64  61  88 CALM      29.79F
ORR            CLOUDY    64  59  82 CALM      29.75F
COOK           CLOUDY    64  61  88 CALM      29.78S
WALKER         CLOUDY    67  63  87 CALM      29.77S
$$
MNZ012-019>021-037-292100-
   Northeast Minnesota

CITY           SKY/WX    TMP DP  RH WIND       PRES   REMARKS
DULUTH         RAIN      63  61  93 S3        29.78S FOG
ELY            CLOUDY    63  57  82 SE5       29.79R
HIBBING        CLOUDY    65  61  87 S3        29.78F
EVELETH        CLOUDY    63  61  94 CALM      29.79S
DULUTH HARBOR  CLOUDY    63  61  94 NE7       29.78S
TWO HARBORS    DRIZZLE   61  55  82 E3        29.76F
SILVER BAY     DRIZZLE   59  59 100 NE3       29.77F
GRAND MARAIS     N/A     61  58  90 E13       29.79F
G MARAIS ARPRT DRIZZLE   57  54  88 E5        29.82F
$$
MNZ029>031-032-039>041-046>048-054>057-064-292100-
   West Central Minnesota

CITY           SKY/WX    TMP DP  RH WIND       PRES   REMARKS
FERGUS FALLS   CLOUDY    70  66  88 W8        29.77F
WHEATON        PTSUNNY   73  66  78 N6        29.78F
MORRIS         MOSUNNY   73  66  78 NW7       29.76F
ALEXANDRIA     CLOUDY    71  66  84 NW3       29.79F
ELBOW LAKE     CLOUDY    70  66  85 NW5       29.77F
WADENA         CLOUDY    68  64  88 CALM      29.78S
GLENWOOD       CLOUDY    72  66  83 NW7       29.78F
APPLETON       MOSUNNY   79  66  65 N6        29.75F
BENSON         CLOUDY    73  68  83 NW7       29.76F
ORTONVILLE     MOSUNNY   75  64  69 N3        29.76F
MADISON        MOSUNNY   77  70  78 NW9       29.77S
WILLMAR        PTSUNNY   73  70  88 NW6       29.77F
$$
MNZ033>034-036-042>043-049>051-058-059-292100-
   Central Minnesota

CITY           SKY/WX    TMP DP  RH WIND       PRES   REMARKS
ST CLOUD       CLOUDY    73  67  81 S3        29.75F
SAUK CENTRE    CLOUDY    69  66  88 CALM      29.77F
PAYNESVILLE    HVY RAIN  70  67  90 CALM      29.77S
AITKIN         CLOUDY    70  64  83 CALM      29.76S
PINE RIVER     CLOUDY    68  63  83 CALM      29.81S
BRAINERD       CLOUDY    68  64  87 CALM      29.77S
STAPLES        CLOUDY    70  64  83 W3        29.78S
LONG PRAIRIE   CLOUDY    70  64  83 CALM      29.78F
LITTLE FALLS   CLOUDY    66  64  94 CALM      29.76F
LITCHFIELD     CLOUDY    75  73  94 CALM      29.76F
BUFFALO        CLOUDY    71  67  88 E5        29.77F
MAPLE LAKE     CLOUDY    71  69  94 SE3       29.76F
$$
MNZ037-044-045-052-053-292100-
   East Central Minnesota

CITY           SKY/WX    TMP DP  RH WIND       PRES   REMARKS
PRINCETON      CLOUDY    72  68  88 SE5       29.76F
MORA           RAIN      64  63  94 CALM      29.74F
CAMBRIDGE      CLOUDY    72  63  73 SE3       29.74F
RUSH CITY      CLOUDY    69  66  92 SW3       29.78S
MOOSE LAKE     LGT RAIN  68  64  88 S3        29.74F
HINCKLEY       DRIZZLE   70  70 100 SW10      29.78R
CLOQUET        RAIN      64  63  94 CALM      29.77F
MCGREGOR       CLOUDY    64  64 100 SE3       29.77F
$$
MNZ071>073-080-081-089-090-097-098-292100-
   Southwest Minnesota

CITY           SKY/WX    TMP DP  RH WIND       PRES   REMARKS
MONTEVIDEO     PTSUNNY   75  73  94 NW3       29.76F
GRANITE FALLS  CLOUDY    73  69  85 NW5       29.77F
CANBY          PTSUNNY   74  67  79 N5        29.77F
MARSHALL       CLOUDY    72  66  83 N9        29.76S
REDWOOD FALLS  LGT RAIN  70  67  90 S9        29.75S
OLIVIA         CLOUDY    73  70  88 NW5       29.75F
PIPESTONE      LGT RAIN  70  66  88 SW5       29.79F
WINDOM         CLOUDY    73  70  88 SW7       29.78F
WORTHINGTON    CLOUDY    70  70 100 W6        29.81S
JACKSON        CLOUDY    72  68  88 SW7       29.80F
TRACY          CLOUDY    75  71  86 CALM      29.76F
SLAYTON        CLOUDY    73  68  85 CALM      29.79F
$$
MNZ065>067-074>077-082>085-091>093-292100-
   South Central Minnesota

CITY           SKY/WX    TMP DP  RH WIND       PRES   REMARKS
MANKATO        CLOUDY    77  66  69 S8        29.75F
NEW ULM        CLOUDY    75  73  94 SW7       29.75F
ST JAMES       CLOUDY    77  70  78 S6        29.77F
FAIRMONT       CLOUDY    72  66  83 SW9       29.79S
GLENCOE        CLOUDY    76  69  78 SW5       29.75F
FARIBAULT      CLOUDY    82  66  57 SW8       29.76F
OWATONNA       CLOUDY    81  68  65 SW8       29.77F
WASECA         CLOUDY    77  64  65 SW9       29.79F
ALBERT LEA     TSTM      79  73  83 S6        29.78F
$$
MNZ078>079-086>088-094>096-292100-
   Southeast Minnesota

CITY           SKY/WX    TMP DP  RH WIND       PRES   REMARKS
ROCHESTER      PTSUNNY   80  70  71 S12       29.78F
RED WING       PTSUNNY   84  70  61 S5        29.73F THUNDER
STANTON        CLOUDY    81  69  67 SW9       29.74F
DODGE CENTER   CLOUDY    82  70  65 S9G18     29.77F
WINONA         MOSUNNY   86  70  58 SW9G18    29.76F HX  90
AUSTIN         CLOUDY    81  70  69 SW13G18   29.77F
PRESTON        MOSUNNY   82  74  78 S5        29.79F THUNDER
$$
ABBREVIATIONS USED IN REMARKS
   TC - TEMPERATURES IN CELSIUS
  WCI - WIND CHILL INDEX
   HX - HEAT INDEX
  VSB - VISIBILITY
$$


USA.gov is the U.S. government's official web portal to all federal, state and local government web resources and services.